Retour au catalogue

STARLINK-35834

ActifCommunicationsVLEO
NORAD 66570·PAYLOAD·🇺🇸 United States

Lancé Nov 21, 2025 depuis Cape Canaveral Space Force Station

Loading…

Prochains Passages (prochaines 24 heures)

TLE

FraisSource: CelesTrak SupGP

Époque: Sep 14, 2026, 22:03 UTC

1 66570C 25268P   26257.91923611 -.00006290  00000+0 -22772-3 0  2579
2 66570  43.0023 358.8407 0001666 265.7538 137.1381 15.27598500    15

Suivez STARLINK-35834 en temps réel avec AllMySat

Download on the App Store